COSMOS 2251 DEB, 35580

Orbit data source: Space-Track

COSMOS 2251 DEB, 35580 is space debris in LEO originally from a launch on Wed, 16 Jun 1993 UTC launched from the Plesetsk Missile And Space Complex (PKMTR). The debris from Iridium 33, an American commercial communications satellite, has been tracked extensively since its accidental collision with the defunct Russian satellite Cosmos 2251 in 2009. This event, occurring at high speed in low Earth orbit (LEO), generated thousands of pieces of space debris, significantly increasing the risk of further collisions. The Iridium 33 debris cloud has impacted space traffic management and orbital debris mitigation strategies, making it a subject of ongoing study in space situational awareness.

Loading next visibility...
Identifier
35580, 1993-036ALX
Orbit
LEO
Country
Flag of CISCIS
Related business
Manufacturer
Unknown
Mission
Spacecraft
Bus & Motor
Unknown
Mass
Unknown
Launch date (UTC)
1993-06-16 (33 years ago)
Launch vehicle
Unknown
Launch site
Plesetsk Missile And Space Complex (PKMTR)
Object type
Payload
Rocket body
Debris
Shape & HBR
Unknown shape, 0.1 m
Radar Cross Section
Small (<0.1 m²)

Expand to show TLE details & history
Last TLE update: 18 hours ago

TLE from 18 hours ago
0 COSMOS 2251 DEB
1 35580U 93036ALX 26263.12990286  .00000748  00000-0  50256-3 0  9998
2 35580  73.8994  59.6995 0280779  11.5228 349.2145 13.84930890661510
Epoch: 2026-09-20T03:07Z
TLE epoch observation values (Epoch: 2026-09-20T03:07:03.607Z)
Latitude
0.00001°
Longitude
13.90596°
Altitude
747.145 km
Speed
7.584 km/s
True Right ascension
03h 58m 47s
True Declination
0° 00' 00"
Sunlit
Object was in full shadow at epoch
Visualization orbit readout
Latitude
Unknown
Longitude
Unknown
Altitude
Unknown
Speed
Unknown
Apparent Right ascension
Unknown
Apparent Declination
Unknown
Sunlit
N/A
Visualization observer readout
Local Sidereal Time
13:54:54
Azimuth
Unknown
Elevation
Unknown
Doppler factor
Unknown
Orbital elements
Apogee altitude
1,149.733 km
Perigee altitude
738.545 km
Semi-major axis
7,322.276 km
Eccentricity
0.02808
Inclination
73.8994°
RAAN
59.6995°
Arg. of periapsis
11.5228°
True anomaly
348.59095°
Mean anomaly
349.2145°
Eccentric anomaly
348.90492°
Mean motion
3.46397 °/min
Orbital period
103.93 mins
BSTAR
0.00050256

Documentation

Showing up to 5 results
|